EHI
0 0 0 0 0 0 0 0 0 0 0 0 0 0 0 0 0 0 0 0 0 0 0 0 0 0 0 0 0 0 0 0 0 0 0 0 0 0
0 0 0 0 0 0 0 0 0 0 0 0 0 0 0 0 0 0 0 0 0 0 0 0 0 0 0 0 0 0 0 0 0 0 0 0 0 0
0 0 0 0 0 0 0 0 0 0 0 0 0 0 0 0 0 0 0 0 0 0 0 0 0 0 0 0 0 0 0 0 0 0 0 0 0 0
0 0 0 0 0 0 0 0 0 0 0 0 0 0 0 0 0 0 0 0 0 0 0 0 0 0 0 0 0 0 0 0 0 0 0 0 0 0
0 0 0 0 0 0 0 0 0 0 0 0 0 0 0 0 0 0 0 0 0 0 0 0 0 0 0 0 0 0 0 0 0 0 0 0 0 0
0 0 0 0 0 0 0 0 0 0 0 0 0 0 0 0 0 0 0 0 0 0 0 0 0 0 0 0 0 0 0 0 0 0 0 0 0 0
0 0 0 0 0 0 0 0 0 0 0 0 0 0 0 0 0 0 0 0 0 0 0 0 0 0 0 0 0 0 0 0 0 0 0 0 0 0
0 0 0 0 0 0 0 0 0 0 0 0 0 0 0 0 0 0 0 0 0 0 0 0 0 0 0 0 0 0 0 0 0 0 0 0 0 0
0 0 0 0 0 0 0 0 0 0 0 0 0 0 0 0 0 0 0 0 0 0 0 0 0 0 0 0 0 0 0 0 0 0 0 0 0 0
0 0 0 0 0 0 0 0 0 0 0 0 0 0 0 0 0 0 0 0 0 0 0 0 0 0 0 0 0 0 0 0 0 0 0 0 0 0
0 0 0 0 0 0 0 0 0 0 0 0 0 0 0 0 0 0 0 0 0 0 0 0 0 0 0 0 0 0 0 0 0 0 0 0 0 0
0 0 0 0 0 0 0 0 0 0 0 0 0 0 0 0 0 0 0 0 0 0 0 0 0 0 0 0 0 0 0 0 0 0 0 0 0 0
0 0 0 0 0 0 0 0 0 0 0 0 0 0 0 0 0 0 0 0 0 0 0 0 0 0 0 0 0 0 0 0 0 0 0 0 0 0
0 0 0 0 0 0 0 0 0 0 0 0 0 0 0 0 0 0 0 0 0 0 0 0 0 0 0 0 0 0 0 0 0 0 0 0 0 0
0 0 0 0 0 0 0 0 0 0 0 0 0 0 0 0 0 0 0 0 0 0 0 0 0 0 0 0 0 0 0 0 0 0 0 0 0 0
0 0 0 0 0 0 0 0 0 0 0 0 0 0 0 0 0 0 0 0 0 0 0 0 0 0 0 0 0 0 0 0 0 0 0 0 0 0
0 0 0 0 0 0 0 0 0 0 0 0 0 0 0 0 0 0 0 0 0 0 0 0 0 0 0 0 0 0 0 0 0 0 0 0 0 0
0 0 0 0 0 0 0 0 0 0 0 0 0 0 0 0 0 0 0 0 0 0 0 0 0 0 0 0 0 0 0 0 0 0 0 0 0 0
0 0 0 0 0 0 0 0 0 0 0 0 0 0 0 0 0 0 0 0 0 0 0 0 0 0 0 0 0 0 0 0 0 0 0 0 0 0
0 0 0 0 0 0 0 0 0 0 0 0 0 0 0 0 0 0 0 0 0 0 0 0 0 0 0 0 0 0 0 0 0 0 0 0 0 0
0 0 0 0 0 0 0 0 0 0 0 0 0 0 0 0 0 0 0 0 0 0 0 0 0 0 0 0 0 0 0 0 0 0 0 0 0 0
0 0 0 0 0 0 0 0 0 0 0 0 0 0 0 0 0 0 0 0 0 0 0 0 0 0 0 0 0 0 0 0 0 0 0 0 0 0
0 0 0 0 0 0 0 0 0 0 0 0 0 0 0 0 0 0 0 0 0 0 0 0 0 0 0 0 0 0 0 0 0 0 0 0 0 0
Wind_Speed
2 3 3 3 3 3 3 4 4 7 9 6 4 4 5 6 10 8 8 16 19 19 19 18 18 18 18 17 17 18 18 18 18 18 18 18 18 18
2 3 3 3 3 3 3 4 4 5 8 6 6 6 7 8 12 9 9 18 18 18 18 18 17 17 17 17 17 17 17 17 17 18 17 17 17 17
3 3 4 4 4 3 3 4 4 5 8 8 6 6 7 8 9 8 8 8 9 16 17 17 16 16 16 16 16 16 17 16 16 16 16 16 16 16
4 4 5 4 5 4 4 5 5 5 6 10 8 7 8 8 9 9 8 8 7 13 16 16 15 15 15 15 15 15 15 15 15 14 14 15 14 14
5 5 5 5 6 5 5 5 5 5 5 7 8 6 6 6 8 8 8 7 7 9 13 13 14 15 14 14 15 15 14 13 13 13 13 13 13 13
5 5 5 5 6 6 6 6 5 6 6 6 7 7 6 6 6 7 8 7 7 7 9 10 12 13 14 14 14 14 13 12 12 12 12 11 11 12
5 5 5 7 9 7 6 6 5 5 5 6 7 7 6 6 6 6 7 8 7 4 6 6 6 6 7 10 12 13 12 11 11 11 11 10 10 10
5 5 6 7 9 11 12 11 9 7 7 6 7 8 9 8 7 7 7 7 6 4 5 7 5 5 5 5 12 13 11 11 10 10 10 10 9 10
5 5 5 6 9 6 9 11 9 11 10 8 8 9 9 8 8 8 7 7 7 6 5 6 4 5 5 7 13 12 11 10 10 10 9 10 10 10
5 5 6 6 7 8 6 6 6 6 8 7 7 8 8 7 7 6 6 7 6 4 3 4 4 5 6 6 10 11 10 10 10 10 9 9 10 10
5 5 6 6 11 11 7 6 7 7 8 10 11 10 12 12 9 5 5 5 6 4 2 3 4 5 5 4 6 10 11 11 11 10 10 10 10 10
4 5 8 9 11 11 6 5 7 7 7 8 8 8 7 8 9 5 4 4 4 4 3 3 3 4 4 3 4 5 6 9 11 11 11 11 11 6
4 4 5 11 12 11 8 5 7 8 5 5 6 6 5 4 4 4 3 3 3 3 3 2 3 3 2 4 4 4 4 4 5 6 8 11 11 8
5 4 6 11 11 11 7 8 10 8 3 4 5 5 5 5 4 5 4 3 2 3 4 3 2 2 3 4 4 4 4 4 4 4 4 8 9 10
4 8 10 11 10 7 8 9 7 3 3 4 5 5 4 5 4 4 4 3 3 3 3 2 1 2 2 2 3 3 4 4 4 4 4 4 4 4
4 6 9 8 7 7 7 5 3 3 3 4 4 5 4 4 3 3 3 3 3 4 4 3 2 2 2 2 2 3 3 3 4 4 4 4 4 3
4 3 3 4 4 4 4 3 3 3 3 3 4 4 4 4 4 3 2 3 3 3 4 4 3 2 1 1 2 2 2 2 3 4 4 4 4 4
5 3 3 4 4 4 4 4 4 4 3 3 3 3 4 4 4 3 2 2 2 3 3 3 4 3 2 2 2 2 3 3 3 4 3 3 4 4
3 3 3 4 4 4 4 4 4 4 3 3 3 3 3 3 3 3 3 2 2 3 3 3 3 3 3 4 4 4 2 3 3 3 3 3 3 4
3 3 3 4 4 4 4 4 4 4 3 3 3 3 3 3 3 3 2 2 2 2 3 3 3 3 2 1 2 3 4 3 3 3 3 3 3 4
4 4 4 4 4 4 4 4 4 4 4 3 3 3 3 3 3 2 2 2 2 2 2 3 3 4 1 1 2 3 4 5 3 2 3 3 3 4
4 4 4 4 4 4 4 4 4 4 4 3 3 3 2 2 2 2 1 1 1 1 2 2 3 3 3 3 3 3 4 5 6 7 7 4 2 3
4 4 4 4 4 4 3 4 4 3 3 3 3 2 2 2 2 1 1 1 1 1 2 2 3 3 3 2 2 3 4 5 4 5 6 9 9 7
Wind_Direction
274 277 278 276 271 269 268 265 279 300 300 293 294 286 298 296 301 300 297 303 307 307 307 307 307 307 306 308 308 308 309 309 304 300 297 295 293 294
279 281 284 281 279 271 267 270 261 268 283 289 290 296 300 303 306 303 296 307 306 306 306 307 307 307 308 308 308 308 309 310 308 302 297 296 296 296
293 288 287 286 284 285 281 276 272 266 279 292 290 296 295 298 305 301 299 297 299 306 311 314 314 312 311 311 311 312 313 311 311 309 303 298 296 297
289 290 291 294 291 289 286 282 279 273 275 292 300 303 300 299 301 304 309 309 302 307 314 315 319 319 317 317 316 317 315 312 314 315 313 311 307 304
278 283 289 295 295 293 290 287 285 287 280 287 296 300 301 303 310 310 309 305 310 313 317 319 321 323 324 326 327 327 324 320 320 319 318 319 322 318
278 279 284 284 285 289 290 288 292 296 293 292 297 303 302 302 306 314 317 319 316 316 319 320 322 325 327 329 330 330 329 327 327 328 328 329 331 328
287 285 285 292 297 298 300 298 297 294 298 298 299 305 307 315 315 310 310 314 309 302 316 319 319 317 324 325 328 332 334 334 332 331 332 335 335 331
288 291 291 292 299 304 305 304 303 299 298 295 298 302 303 305 306 308 310 317 311 318 319 310 316 312 316 319 327 332 337 338 337 335 336 339 339 334
284 291 298 299 305 295 298 305 306 306 302 296 293 294 299 303 305 305 304 305 295 302 311 299 312 310 317 321 330 336 341 343 345 344 344 347 349 352
279 280 284 293 296 303 301 305 302 302 301 295 284 286 293 297 293 290 292 297 292 295 299 290 306 309 319 321 333 345 346 348 350 351 358 7 7 3
280 285 289 289 300 312 313 307 308 309 312 311 308 309 313 318 321 317 316 314 308 308 314 301 309 317 317 321 336 351 353 357 3 6 11 14 11 10
293 288 293 301 307 313 309 304 306 309 315 318 320 321 319 319 325 315 300 301 304 303 323 328 315 327 325 319 337 351 356 358 1 5 12 16 14 15
304 301 298 307 310 311 313 302 301 312 314 315 314 317 324 326 325 320 311 293 289 284 306 322 316 325 314 312 327 346 356 358 359 4 11 15 14 15
297 300 304 311 311 313 314 315 319 325 322 319 318 321 326 326 323 321 322 318 301 287 300 308 297 306 314 316 320 333 346 356 3 3 4 5 10 12
297 308 316 319 319 316 317 321 325 325 322 319 316 313 311 311 316 321 331 334 343 342 334 323 307 307 309 309 317 330 335 345 359 2 360 359 358 358
314 313 319 320 321 317 318 320 318 312 314 305 305 306 313 322 326 329 334 343 352 350 355 359 359 355 338 313 314 329 338 331 341 349 352 358 1 2
321 320 325 328 332 329 326 322 322 324 323 317 313 317 322 327 329 335 338 347 356 343 346 351 353 347 352 347 350 347 346 344 340 345 356 4 3 2
330 324 325 324 320 322 323 323 323 321 319 316 315 315 318 324 329 333 338 353 359 354 347 340 341 352 13 26 25 358 359 352 346 351 2 8 2 1
329 315 313 313 313 314 314 315 316 315 314 312 313 316 319 321 327 332 340 354 1 359 351 346 351 8 26 9 355 12 5 349 351 360 5 5 353 346
319 307 305 306 305 304 305 307 310 313 315 314 315 318 321 320 326 330 340 358 356 354 358 0 2 4 21 358 333 344 358 349 350 355 351 348 342 338
312 307 304 303 304 304 303 304 304 305 307 309 314 318 319 322 325 330 340 359 3 3 7 355 340 346 343 11 20 359 358 2 360 344 338 347 357 15
308 305 304 303 303 303 304 303 302 303 306 308 312 316 316 317 321 326 339 356 4 8 8 358 355 12 31 44 37 10 1 1 10 19 25 28 26 29
307 305 303 301 300 300 300 298 295 297 300 302 306 310 316 321 323 333 344 3 22 27 34 23 15 26 32 37 37 26 17 10 13 31 38 37 48 51